Location: Deuil
(48.9767°N, 2.3272°E)
Time: 02:52:58
(UTC+00:00)

Cosmos 2360 Rocket - Pass Details

Date: 24 May 2022
Orbit: 832 x 846 km, 71.0° (Epoch: 03 July)

Event Time Altitude Azimuth Distance (km) Brightness Sun altitude
Exits shadow 22:13:00 25° 131° (SE) 1,637 3.2 -17.0°
Maximum altitude 22:14:34 29° 104° (ESE) 1,507 3.2 -17.1°
Drops below altitude 10° 22:19:19 10° 47° (NE) 2,464 4.9 -17.4°
Sets 22:22:03 0° 36° (NE) 3,406 5.8 -17.6°
